TimeEST,TemperatureF,Dew PointF,Humidity,Sea Level PressureIn,VisibilityMPH,Wind Direction,Wind SpeedMPH,Gust SpeedMPH,PrecipitationIn,Events,Conditions,WindDirDegrees,DateUTC
12:25 AM,50.0,41.0,71,30.21,10.0,North,5.8,-,N/A,,Overcast,360,2012-11-20 05:25:00
12:54 AM,50.0,41.0,71,30.22,10.0,North,4.6,-,N/A,,Overcast,350,2012-11-20 05:54:00
1:54 AM,50.0,42.1,74,30.20,10.0,NNE,4.6,-,N/A,,Overcast,20,2012-11-20 06:54:00
2:54 AM,50.0,42.1,74,30.20,10.0,NNE,3.5,-,N/A,,Overcast,20,2012-11-20 07:54:00
3:54 AM,50.0,42.1,74,30.19,10.0,Variable,4.6,-,N/A,,Overcast,0,2012-11-20 08:54:00
4:54 AM,48.9,42.1,77,30.19,10.0,NNE,5.8,-,N/A,,Overcast,30,2012-11-20 09:54:00
5:54 AM,48.9,42.1,77,30.19,9.0,Calm,Calm,-,N/A,,Overcast,0,2012-11-20 10:54:00
6:54 AM,48.9,42.1,77,30.19,9.0,Calm,Calm,-,N/A,,Mostly Cloudy,0,2012-11-20 11:54:00
7:54 AM,48.9,43.0,80,30.20,7.0,NNE,3.5,-,N/A,,Clear,30,2012-11-20 12:54:00
8:54 AM,50.0,43.0,77,30.19,9.0,Variable,3.5,-,N/A,,Partly Cloudy,0,2012-11-20 13:54:00
9:11 AM,50.0,43.0,77,30.19,9.0,NE,6.9,-,N/A,,Mostly Cloudy,50,2012-11-20 14:11:00
9:54 AM,50.0,43.0,77,30.19,9.0,NE,6.9,-,N/A,,Overcast,50,2012-11-20 14:54:00
10:12 AM,50.0,43.0,77,30.18,10.0,East,3.5,-,N/A,,Scattered Clouds,100,2012-11-20 15:12:00
10:54 AM,51.1,43.0,74,30.18,9.0,NE,3.5,-,N/A,,Clear,50,2012-11-20 15:54:00
11:54 AM,53.1,42.1,66,30.16,9.0,Calm,Calm,-,N/A,,Clear,0,2012-11-20 16:54:00
12:54 PM,52.0,45.0,77,30.13,8.0,SE,4.6,-,N/A,,Clear,130,2012-11-20 17:54:00
1:34 PM,54.0,42.1,64,30.12,10.0,North,5.8,-,N/A,,Mostly Cloudy,10,2012-11-20 18:34:00
1:47 PM,53.1,42.1,66,30.12,10.0,NE,5.8,-,N/A,,Scattered Clouds,40,2012-11-20 18:47:00
1:54 PM,53.1,42.1,66,30.12,10.0,NE,5.8,-,N/A,,Partly Cloudy,40,2012-11-20 18:54:00
2:54 PM,52.0,42.1,69,30.11,10.0,ENE,4.6,-,N/A,,Clear,70,2012-11-20 19:54:00
3:54 PM,52.0,42.1,69,30.12,10.0,NNE,3.5,-,N/A,,Clear,30,2012-11-20 20:54:00
4:54 PM,51.1,42.1,71,30.11,10.0,Calm,Calm,-,N/A,,Clear,0,2012-11-20 21:54:00
5:54 PM,52.0,42.1,69,30.12,10.0,Calm,Calm,-,N/A,,Clear,0,2012-11-20 22:54:00
6:54 PM,51.1,44.1,77,30.14,9.0,Calm,Calm,-,N/A,,Clear,0,2012-11-20 23:54:00
7:54 PM,48.0,43.0,83,30.14,8.0,Calm,Calm,-,N/A,,Clear,0,2012-11-21 00:54:00
8:54 PM,46.9,43.0,86,30.14,7.0,Calm,Calm,-,N/A,,Clear,0,2012-11-21 01:54:00
9:54 PM,45.0,42.1,90,30.14,5.0,NW,3.5,-,N/A,,Clear,320,2012-11-21 02:54:00
10:54 PM,46.0,43.0,89,30.16,5.0,NW,3.5,-,N/A,,Clear,320,2012-11-21 03:54:00
11:54 PM,45.0,43.0,93,30.15,4.0,NW,3.5,-,N/A,,Clear,320,2012-11-21 04:54:00